Home   Weather   Richterswil   Past weeks

Flag for Switzerland Past Weather in Richterswil, Zurich, Switzerland — Yesterday and Last 2 Weeks

Now
20 °F

Cold.


Feels Like: 15 °F
Forecast: 16 / 34 °F
Wind: 3 mph from Northeast

Location: Zuerich-Fluntern

Current Time: Jan 21, 2017 at 1:13:24 am

Latest Report: Jan 21, 2017 at 12:00 am


Visibility: N/A

Pressure: 30.54 "Hg

Humidity: 90%

Dew Point: 17 °F

Location of RichterswilLocation

Past Weather in Richterswil — Graph

°F

Richterswil Temperature Yesterday

Maximum temperature yesterday: 22 °F (at 12:00 pm)
Minimum temperature yesterday: 20 °F (at 9:00 pm)
Average temperature yesterday: 21 °F

High & Low Weather Summary for the Past Weeks

 TemperatureHumidityPressure
High41 °F (Jan 12, 2:00 pm)100% (Jan 7, 6:00 am)30.74 "Hg (Jan 7, 6:00 am)
Low10 °F (Jan 7, 4:00 am)65% (Jan 13, 12:00 pm)29.55 "Hg (Jan 13, 12:00 am)
Average26 °F85%30.29 "Hg
* Reported Jan 5 11:00 pm — Jan 20 11:00 pm, Richterswil, Weather by CustomWeather, © 2017

Note: Actual official high and low records may vary slightly from our data, if they occured in-between our weather recording intervals... More about our weather records

Advertising

Richterswil Weather History for the Previous 24 Hours

Scroll right to see more
 ConditionsComfort  
Time TempWeatherWind HumidityBarometerVisibility
11:00 pm
Fri, Jan 20
20 °FCold.5 mph89%30.53 "HgN/A
10:00 pm20 °FCold.3 mph89%30.53 "HgN/A
9:00 pm20 °FCold.5 mph89%30.53 "HgN/A
8:00 pm20 °FCold.5 mph88%30.53 "HgN/A
7:00 pm20 °FOvercast.5 mph87%30.52 "HgN/A
6:00 pm21 °FCold.5 mph86%30.52 "HgN/A
5:00 pm21 °FCold.3 mph86%30.52 "HgN/A
4:00 pm22 °FCold.3 mph85%30.51 "HgN/A
3:00 pm22 °FCold.3 mph84%30.51 "HgN/A
2:00 pm21 °FCold.5 mph84%30.52 "HgN/A
1:00 pm22 °FOvercast.5 mph83%30.53 "HgN/A
12:00 pm22 °FCold.5 mph81%30.54 "HgN/A
11:00 am21 °FCold.5 mph84%30.55 "HgN/A
10:00 am20 °FCold.3 mph86%30.55 "HgN/A
9:00 am20 °FCold.3 mph86%30.54 "HgN/A
8:00 am20 °FCold.3 mph87%30.54 "HgN/A
7:00 am20 °FCold.2 mph85%30.53 "HgN/A
6:00 am20 °FCold.2 mph85%30.53 "HgN/A
5:00 am20 °FCold.1 mph87%30.53 "HgN/A
4:00 am20 °FCold.3 mph85%30.53 "HgN/A
3:00 am21 °FCold.2 mph84%30.53 "HgN/A
2:00 am20 °FCold.2 mph84%30.53 "HgN/A
1:00 am21 °FCold.2 mph85%30.53 "HgN/A
Weather by CustomWeather, © 2017

See weather overviewHow to use our weather pages